Weather Roundup
Issued by NWS

Home | Current Version | Previous Version | Text Only | Print | Product List | Glossary On
Versions: 1 2 3 4 5 6 7 8 9 10 11 12 13 14 15 16 17 18 19 20 21 22 23 24 25 26 27 28 29 30 31 32 33 34 35 36 37 38 39 40 41 42 43 44 45 46 47 48 49 50
013
NZUS93 KARX 271210
HRRWXR

CURRENT HOURLY OBSERVATIONS ACROSS
MUCH OF THE UPPER MISSISSIPPI VALLEY
NATIONAL WEATHER SERVICE LA CROSSE WI
700 AM CDT TUE JUN 27 2017


...SOUTHEAST MINNESOTA...


CITY           SKY/WX    TMP DP  RH WIND       PRES   REMARKS
ROCHESTER      SUNNY     53  47  79 SW6       30.13S
ROCHESTER/MAYO FAIR      55  44  67 W3        30.13S
WINONA         SUNNY     52  50  93 CALM      30.12S
AUSTIN         SUNNY     48  45  87 CALM      30.13S
ALBERT LEA     SUNNY     54  46  76 CALM      30.13F
DODGE CENTER   SUNNY     54  46  76 SW3       30.12F
PRESTON        SUNNY     54  44  70 SW6       30.14S
OWATONNA       SUNNY     54  45  71 CALM      30.12S
FARIBAULT      SUNNY     54  46  76 CALM      30.11F
$$

...ELSEWHERE IN MINNESOTA...


CITY           SKY/WX    TMP DP  RH WIND       PRES   REMARKS
MINNEAPOLIS    MOSUNNY   56  45  66 SW6       30.10R
INTNL FALLS    MOSUNNY   49  45  86 VRB3      29.99R
DULUTH         SUNNY     54  45  71 W6        30.04S
RED WING       SUNNY     52  48  87 CALM      30.09F
REDWOOD FALLS  SUNNY     53  43  68 S6        30.09S
MANKATO        SUNNY     52  45  77 S3        30.11F
WORTHINGTON    SUNNY     53  44  71 S7        30.12S
FAIRMONT       SUNNY     53  46  77 SW6       30.12S
$$

...SOUTHWEST WISCONSIN...


CITY           SKY/WX    TMP DP  RH WIND       PRES   REMARKS
LA CROSSE      SUNNY     58  51  78 S8        30.12R
PRAIRIE DU CHI SUNNY     51  48  92 CALM      30.14R
BOSCOBEL       FOG       51  50  96 SW3       30.14S VSB 1/4
LONE ROCK      FOG       48  47  96 W3        30.13R VSB 1/4
PLATTEVILLE    SUNNY     53  50  91 CALM      30.15R
FORT MC COY    SUNNY     46  45  95 CALM      30.12S
CAMP DOUGLAS   MOSUNNY   50  48  93 CALM      30.09S
MAUSTON-NEW LI SUNNY     58  47  66 W6        30.10R
VIROQUA        FAIR      52  48  86 SW6       30.13R
WIS DELLS      MOSUNNY   52  49  90 CALM      30.11S
$$

...ELSEWHERE IN WISCONSIN...


CITY           SKY/WX    TMP DP  RH WIND       PRES   REMARKS
MILWAUKEE      SUNNY     59  48  67 W7        30.10R
MADISON        SUNNY     55  47  74 CALM      30.11R
GREEN BAY      SUNNY     54  51  90 W8        30.06R
EAU CLAIRE     SUNNY     53  49  86 SW3       30.09R
BLACK RVR FLS  FAIR      50  50 100 S3        30.11S
MEDFORD        SUNNY     52  46  82 W5        30.08S
WAUSAU         SUNNY     53  48  83 NW9       30.06R
WIS RAPIDS     SUNNY     53  48  83 W5        30.10S
MARSHFIELD     SUNNY     53  46  77 W7        30.08R
RICE LAKE      SUNNY     51  49  92 CALM      30.09S
$$

...NORTHEAST IOWA...


CITY           SKY/WX    TMP DP  RH WIND       PRES   REMARKS
WATERLOO       SUNNY     52  48  86 CALM      30.14S
DUBUQUE        SUNNY     51  47  86 CALM      30.15R
DECORAH        SUNNY     54  46  76 CALM      30.13S
MASON CITY     SUNNY     54  47  77 CALM      30.15F
CHARLES CITY   SUNNY     52  50  93 SW3       30.16R
OELWEIN        NOT AVBL
$$

...ELSEWHERE IN IOWA...


CITY           SKY/WX    TMP DP  RH WIND       PRES   REMARKS
DES MOINES     MOSUNNY   55  47  74 S3        30.15R
IOWA CITY      SUNNY     52  48  86 CALM      30.17S
FORT DODGE     SUNNY     50  46  87 CALM      30.15S
MARSHALLTOWN   SUNNY     49  48  97 CALM      30.15R
CEDAR RAPIDS   SUNNY     49  48  97 CALM      30.15R
$$

...NORTHERN ILLINOIS...


CITY           SKY/WX    TMP DP  RH WIND       PRES   REMARKS
CHICAGO-OHARE  SUNNY     58  47  66 W8        30.12R
CHICAGO-MIDWAY SUNNY     57  48  72 SW5       30.12S
MOLINE         SUNNY     54  47  77 CALM      30.16R
ROCKFORD       SUNNY     52  48  86 S3        30.14S
PEORIA         MOSUNNY   54  52  93 CALM      30.17R
$$

NOTE: "FAIR" INDICATES FEW OR NO CLOUDS BELOW 12,000 FEET WITH NO
SIGNIFICANT WEATHER AND/OR OBSTRUCTIONS TO VISIBILITY. WIND
SPEEDS ARE IN MILES-PER-HOUR.




USA.gov is the U.S. government's official web portal to all federal, state and local government web resources and services.